User: anonymous
Location: French Creek State Gamelands
(40.1750°N, 75.7969°W)
Time: 13:58:09
(UTC-04:00)
Language:

ISS - Orbit

View from above orbital plane
View from above orbital plane
View from above satellite
View from above satellite

Ground track
Ground track

The orbit data is extracted from the following two-line orbital elements,

1 25544U 98067A   14293.21538950  .00018911  00000-0  33108-3 0  2690
2 25544 051.6464 199.8332 0002339 273.1081 185.9199 15.50632385910721
Epoch (UTC): 20 October 2014 05:10:09
Eccentricity: 0.0002339
inclination: 51.6464°
perigee height: 413 km
apogee height: 416 km
right ascension of ascending node: 199.8332°
argument of perigee: 273.1081°
revolutions per day: 15.50632385
mean anomaly at epoch: 185.9199°
orbit number at epoch: 91072

The dashed part of the orbit path shows where the satellite is in the earth's shadow,  

DLR